Time,TemperatureF,DewpointF,PressureIn,WindDirection,WindDirectionDegrees,WindSpeedMPH,WindSpeedGustMPH,Humidity,HourlyPrecipIn,Conditions,Clouds,dailyrainin,SoftwareType,DateUTC
2013-06-07 00:01:00,54.6,51.7,30.05,North,351,1.0,2.0,90,0.00,,---,0.00,VWS V14.01,2013-06-07 05:01:00,
2013-06-07 00:06:00,54.5,51.6,30.05,North,351,0.0,2.0,90,0.00,,---,0.00,VWS V14.01,2013-06-07 05:06:00,
2013-06-07 00:11:00,54.6,51.7,30.05,NNW,339,1.0,2.0,90,0.00,,---,0.00,VWS V14.01,2013-06-07 05:11:00,
2013-06-07 00:16:00,54.5,51.6,30.05,NNW,341,0.0,1.0,90,0.00,,---,0.00,VWS V14.01,2013-06-07 05:16:00,
2013-06-07 00:22:00,54.5,51.6,30.05,NNW,339,0.0,1.0,90,0.00,,---,0.00,VWS V14.01,2013-06-07 05:22:00,
2013-06-07 00:27:00,54.5,51.6,30.05,NNW,339,0.0,0.0,90,0.00,,---,0.00,VWS V14.01,2013-06-07 05:27:00,
2013-06-07 00:32:00,54.5,51.6,30.05,NNW,347,0.0,2.0,90,0.00,,---,0.00,VWS V14.01,2013-06-07 05:32:00,
2013-06-07 00:37:00,54.4,51.5,30.05,North,356,0.0,2.0,90,0.00,,---,0.00,VWS V14.01,2013-06-07 05:37:00,
2013-06-07 00:42:00,54.4,51.8,30.05,North,357,0.0,0.0,91,0.00,,---,0.00,VWS V14.01,2013-06-07 05:42:00,
2013-06-07 00:47:00,54.3,51.7,30.05,North,356,0.0,0.0,91,0.00,,---,0.00,VWS V14.01,2013-06-07 05:47:00,
2013-06-07 00:52:00,54.3,51.7,30.04,North,355,0.0,0.0,91,0.00,,---,0.00,VWS V14.01,2013-06-07 05:52:00,
2013-06-07 00:57:00,54.3,51.7,30.04,North,356,1.0,1.0,91,0.00,,---,0.00,VWS V14.01,2013-06-07 05:57:00,
2013-06-07 01:02:00,54.3,51.7,30.05,North,357,1.0,1.0,91,0.00,,---,0.00,VWS V14.01,2013-06-07 06:02:00,
2013-06-07 01:07:00,54.3,51.7,30.05,North,356,0.0,1.0,91,0.00,,---,0.00,VWS V14.01,2013-06-07 06:07:00,
2013-06-07 01:12:00,54.3,51.7,30.04,North,356,0.0,0.0,91,0.00,,---,0.00,VWS V14.01,2013-06-07 06:12:00,
2013-06-07 01:17:00,54.3,51.7,30.04,North,356,1.0,1.0,91,0.00,,---,0.00,VWS V14.01,2013-06-07 06:17:00,
2013-06-07 01:22:00,54.3,51.7,30.04,North,357,1.0,2.0,91,0.00,,---,0.00,VWS V14.01,2013-06-07 06:22:00,
2013-06-07 01:27:00,54.3,51.7,30.04,NNW,335,0.0,0.0,91,0.00,,---,0.00,VWS V14.01,2013-06-07 06:27:00,
2013-06-07 01:32:00,54.2,51.6,30.04,NNW,336,0.0,1.0,91,0.00,,---,0.00,VWS V14.01,2013-06-07 06:32:00,
2013-06-07 01:37:00,54.2,51.6,30.04,North,352,1.0,2.0,91,0.00,,---,0.00,VWS V14.01,2013-06-07 06:37:00,
2013-06-07 01:42:00,54.2,51.6,30.04,North,2,0.0,0.0,91,0.00,,---,0.00,VWS V14.01,2013-06-07 06:42:00,
2013-06-07 01:47:00,54.2,51.9,30.04,North,2,0.0,1.0,92,0.00,,---,0.00,VWS V14.01,2013-06-07 06:47:00,
2013-06-07 01:52:00,54.1,51.8,30.04,North,2,0.0,1.0,92,0.00,,---,0.00,VWS V14.01,2013-06-07 06:52:00,
2013-06-07 01:57:00,54.1,51.8,30.04,North,2,0.0,0.0,92,0.00,,---,0.00,VWS V14.01,2013-06-07 06:57:00,
2013-06-07 02:02:00,54.1,51.8,30.04,North,359,0.0,0.0,92,0.00,,---,0.00,VWS V14.01,2013-06-07 07:02:00,
2013-06-07 02:07:00,54.0,51.7,30.04,North,352,0.0,3.0,92,0.00,,---,0.00,VWS V14.01,2013-06-07 07:07:00,
2013-06-07 02:12:00,54.0,51.7,30.04,North,352,0.0,0.0,92,0.00,,---,0.00,VWS V14.01,2013-06-07 07:12:00,
2013-06-07 02:17:00,53.9,51.6,30.04,North,352,0.0,0.0,92,0.00,,---,0.00,VWS V14.01,2013-06-07 07:17:00,
2013-06-07 02:22:00,53.9,51.6,30.04,North,352,0.0,1.0,92,0.00,,---,0.00,VWS V14.01,2013-06-07 07:22:00,
2013-06-07 02:27:00,53.9,51.6,30.03,North,352,0.0,0.0,92,0.00,,---,0.00,VWS V14.01,2013-06-07 07:27:00,
2013-06-07 02:32:00,53.9,51.6,30.03,North,352,0.0,0.0,92,0.00,,---,0.00,VWS V14.01,2013-06-07 07:32:00,
2013-06-07 02:37:00,53.8,51.5,30.03,North,352,0.0,2.0,92,0.00,,---,0.00,VWS V14.01,2013-06-07 07:37:00,
2013-06-07 02:42:00,53.8,51.5,30.03,North,352,0.0,0.0,92,0.00,,---,0.00,VWS V14.01,2013-06-07 07:42:00,
2013-06-07 02:47:00,53.8,51.5,30.03,North,352,0.0,0.0,92,0.00,,---,0.00,VWS V14.01,2013-06-07 07:47:00,
2013-06-07 02:52:00,53.9,51.6,30.03,North,352,0.0,0.0,92,0.00,,---,0.00,VWS V14.01,2013-06-07 07:52:00,
2013-06-07 02:57:00,53.9,51.6,30.03,North,352,0.0,0.0,92,0.00,,---,0.00,VWS V14.01,2013-06-07 07:57:00,
2013-06-07 03:02:00,53.9,51.6,30.03,North,352,0.0,0.0,92,0.00,,---,0.00,VWS V14.01,2013-06-07 08:02:00,
2013-06-07 03:07:00,53.9,51.6,30.03,North,352,0.0,0.0,92,0.00,,---,0.00,VWS V14.01,2013-06-07 08:07:00,
2013-06-07 03:12:00,53.9,51.6,30.03,North,352,2.0,2.0,92,0.00,,---,0.00,VWS V14.01,2013-06-07 08:12:00,
2013-06-07 03:17:00,53.9,51.6,30.03,North,352,0.0,2.0,92,0.00,,---,0.00,VWS V14.01,2013-06-07 08:17:00,
2013-06-07 03:22:00,53.9,51.9,30.03,North,352,0.0,2.0,93,0.00,,---,0.00,VWS V14.01,2013-06-07 08:22:00,
2013-06-07 03:27:00,53.9,51.9,30.03,North,351,0.0,0.0,93,0.00,,---,0.00,VWS V14.01,2013-06-07 08:27:00,
2013-06-07 03:32:00,53.9,51.9,30.03,North,351,0.0,0.0,93,0.00,,---,0.00,VWS V14.01,2013-06-07 08:32:00,
2013-06-07 03:37:00,53.8,51.8,30.03,NNW,336,1.0,2.0,93,0.00,,---,0.00,VWS V14.01,2013-06-07 08:37:00,
2013-06-07 03:42:00,53.8,51.8,30.03,NNW,327,0.0,0.0,93,0.00,,---,0.00,VWS V14.01,2013-06-07 08:42:00,
2013-06-07 03:47:00,53.8,51.8,30.03,NNW,327,0.0,1.0,93,0.00,,---,0.00,VWS V14.01,2013-06-07 08:47:00,
2013-06-07 03:52:00,53.8,51.8,30.03,NNW,327,0.0,1.0,93,0.00,,---,0.00,VWS V14.01,2013-06-07 08:52:00,
2013-06-07 03:57:00,53.8,51.8,30.03,NNW,328,0.0,0.0,93,0.00,,---,0.00,VWS V14.01,2013-06-07 08:57:00,
2013-06-07 04:02:00,53.8,51.8,30.03,NNW,328,0.0,0.0,93,0.00,,---,0.00,VWS V14.01,2013-06-07 09:02:00,
2013-06-07 04:07:00,53.7,51.7,30.03,NNW,328,0.0,0.0,93,0.00,,---,0.00,VWS V14.01,2013-06-07 09:07:00,
2013-06-07 04:12:00,53.7,51.7,30.03,NW,311,0.0,0.0,93,0.00,,---,0.00,VWS V14.01,2013-06-07 09:12:00,
2013-06-07 04:17:00,53.7,51.7,30.03,NW,313,0.0,1.0,93,0.00,,---,0.00,VWS V14.01,2013-06-07 09:17:00,
2013-06-07 04:22:00,53.6,51.6,30.03,NW,313,0.0,1.0,93,0.00,,---,0.00,VWS V14.01,2013-06-07 09:22:00,
2013-06-07 04:27:00,53.6,51.6,30.03,NW,313,0.0,0.0,93,0.00,,---,0.00,VWS V14.01,2013-06-07 09:27:00,
2013-06-07 04:32:00,53.6,51.6,30.03,NW,313,0.0,0.0,93,0.00,,---,0.00,VWS V14.01,2013-06-07 09:32:00,
2013-06-07 04:37:00,53.6,51.6,30.03,NW,313,0.0,0.0,93,0.00,,---,0.00,VWS V14.01,2013-06-07 09:37:00,
2013-06-07 04:42:00,53.6,51.6,30.03,NW,313,0.0,0.0,93,0.00,,---,0.00,VWS V14.01,2013-06-07 09:42:00,
2013-06-07 04:47:00,53.6,51.6,30.03,NW,313,0.0,1.0,93,0.00,,---,0.00,VWS V14.01,2013-06-07 09:47:00,
2013-06-07 04:52:00,53.6,51.9,30.03,NW,313,0.0,1.0,94,0.00,,---,0.00,VWS V14.01,2013-06-07 09:52:00,
2013-06-07 04:57:00,53.6,51.9,30.03,NW,313,0.0,0.0,94,0.00,,---,0.00,VWS V14.01,2013-06-07 09:57:00,
2013-06-07 05:02:00,53.6,51.9,30.03,NW,313,0.0,0.0,94,0.00,,---,0.00,VWS V14.01,2013-06-07 10:02:00,
2013-06-07 05:07:00,53.6,51.9,30.03,NW,313,0.0,0.0,94,0.00,,---,0.00,VWS V14.01,2013-06-07 10:07:00,
2013-06-07 05:12:00,53.5,51.8,30.03,NW,313,0.0,0.0,94,0.00,,---,0.00,VWS V14.01,2013-06-07 10:12:00,
2013-06-07 05:17:00,53.5,51.8,30.03,NW,313,0.0,0.0,94,0.00,,---,0.00,VWS V14.01,2013-06-07 10:17:00,
2013-06-07 05:22:00,53.4,51.7,30.03,NW,313,0.0,0.0,94,0.00,,---,0.00,VWS V14.01,2013-06-07 10:22:00,
2013-06-07 05:27:00,53.4,51.7,30.04,NW,315,0.0,0.0,94,0.00,,---,0.00,VWS V14.01,2013-06-07 10:27:00,
2013-06-07 05:32:00,53.4,51.7,30.04,NW,315,0.0,0.0,94,0.00,,---,0.00,VWS V14.01,2013-06-07 10:32:00,
2013-06-07 05:37:00,53.5,51.8,30.04,NW,316,0.0,0.0,94,0.00,,---,0.00,VWS V14.01,2013-06-07 10:37:00,
2013-06-07 05:42:00,53.5,51.8,30.04,NW,314,0.0,0.0,94,0.00,,---,0.00,VWS V14.01,2013-06-07 10:42:00,
2013-06-07 05:47:00,53.5,51.8,30.04,NW,316,0.0,1.0,94,0.00,,---,0.00,VWS V14.01,2013-06-07 10:47:00,
2013-06-07 05:52:00,53.5,51.8,30.04,NW,315,0.0,1.0,94,0.00,,---,0.00,VWS V14.01,2013-06-07 10:52:00,
2013-06-07 05:57:00,53.6,51.9,30.04,NW,316,0.0,0.0,94,0.00,,---,0.00,VWS V14.01,2013-06-07 10:57:00,
2013-06-07 06:02:00,53.6,51.9,30.04,NW,316,0.0,0.0,94,0.00,,---,0.00,VWS V14.01,2013-06-07 11:02:00,
2013-06-07 06:07:00,53.6,51.9,30.05,NW,316,0.0,0.0,94,0.00,,---,0.00,VWS V14.01,2013-06-07 11:07:00,
2013-06-07 06:12:00,53.6,51.9,30.05,NW,315,0.0,0.0,94,0.00,,---,0.00,VWS V14.01,2013-06-07 11:12:00,
2013-06-07 06:17:00,53.7,52.0,30.05,NW,316,0.0,0.0,94,0.00,,---,0.00,VWS V14.01,2013-06-07 11:17:00,
2013-06-07 06:22:00,53.8,52.1,30.05,NW,316,0.0,0.0,94,0.00,,---,0.00,VWS V14.01,2013-06-07 11:22:00,
2013-06-07 06:27:00,53.8,52.1,30.05,NW,316,0.0,0.0,94,0.00,,---,0.00,VWS V14.01,2013-06-07 11:27:00,
2013-06-07 06:32:00,53.9,52.2,30.05,NW,316,0.0,0.0,94,0.00,,---,0.00,VWS V14.01,2013-06-07 11:32:00,
2013-06-07 06:37:00,53.9,52.2,30.05,NW,316,0.0,0.0,94,0.00,,---,0.00,VWS V14.01,2013-06-07 11:37:00,
2013-06-07 06:42:00,53.9,52.2,30.05,NW,316,0.0,0.0,94,0.00,,---,0.00,VWS V14.01,2013-06-07 11:42:00,
2013-06-07 06:47:00,53.9,52.2,30.05,NW,316,0.0,1.0,94,0.00,,---,0.00,VWS V14.01,2013-06-07 11:47:00,
2013-06-07 06:52:00,53.9,52.2,30.05,NW,316,0.0,1.0,94,0.00,,---,0.00,VWS V14.01,2013-06-07 11:52:00,
2013-06-07 06:57:00,54.0,52.3,30.05,NW,315,0.0,1.0,94,0.00,,---,0.00,VWS V14.01,2013-06-07 11:57:00,
2013-06-07 07:02:00,53.9,52.2,30.05,NW,315,0.0,1.0,94,0.00,,---,0.00,VWS V14.01,2013-06-07 12:02:00,
2013-06-07 07:07:00,53.9,52.2,30.05,NW,316,0.0,1.0,94,0.00,,---,0.00,VWS V14.01,2013-06-07 12:07:00,
2013-06-07 07:12:00,54.0,52.3,30.05,NW,315,0.0,0.0,94,0.00,,---,0.00,VWS V14.01,2013-06-07 12:12:00,
2013-06-07 07:17:00,54.0,52.3,30.05,NW,316,0.0,0.0,94,0.00,,---,0.00,VWS V14.01,2013-06-07 12:17:00,
2013-06-07 07:22:00,54.1,52.4,30.06,NW,316,0.0,0.0,94,0.00,,---,0.00,VWS V14.01,2013-06-07 12:22:00,
2013-06-07 07:27:00,54.2,52.5,30.05,NW,315,0.0,0.0,94,0.00,,---,0.00,VWS V14.01,2013-06-07 12:27:00,
2013-06-07 07:32:00,54.4,52.7,30.06,NW,316,0.0,0.0,94,0.00,,---,0.00,VWS V14.01,2013-06-07 12:32:00,
2013-06-07 07:37:00,54.6,52.9,30.06,NW,316,0.0,0.0,94,0.00,,---,0.00,VWS V14.01,2013-06-07 12:37:00,
2013-06-07 07:42:00,54.7,53.0,30.06,NW,316,0.0,0.0,94,0.00,,---,0.00,VWS V14.01,2013-06-07 12:42:00,
2013-06-07 07:47:00,54.8,53.1,30.06,NW,316,0.0,0.0,94,0.00,,---,0.00,VWS V14.01,2013-06-07 12:47:00,
2013-06-07 07:52:00,54.9,52.9,30.06,NW,316,0.0,0.0,93,0.00,,---,0.00,VWS V14.01,2013-06-07 12:52:00,
2013-06-07 07:57:00,54.9,52.9,30.06,WNW,301,0.0,0.0,93,0.00,,---,0.00,VWS V14.01,2013-06-07 12:57:00,
2013-06-07 08:02:00,54.9,52.9,30.06,WNW,300,0.0,0.0,93,0.00,,---,0.00,VWS V14.01,2013-06-07 13:02:00,
2013-06-07 08:07:00,54.9,52.9,30.06,WNW,300,0.0,0.0,93,0.00,,---,0.00,VWS V14.01,2013-06-07 13:07:00,
2013-06-07 08:12:00,55.0,53.0,30.06,WNW,300,0.0,0.0,93,0.00,,---,0.00,VWS V14.01,2013-06-07 13:12:00,
2013-06-07 08:17:00,55.0,53.0,30.06,NW,312,0.0,0.0,93,0.00,,---,0.00,VWS V14.01,2013-06-07 13:17:00,
2013-06-07 08:22:00,55.0,52.7,30.07,NW,313,0.0,0.0,92,0.00,,---,0.00,VWS V14.01,2013-06-07 13:22:00,
2013-06-07 08:27:00,55.1,52.8,30.07,NW,313,0.0,0.0,92,0.00,,---,0.00,VWS V14.01,2013-06-07 13:27:00,
2013-06-07 08:32:00,55.2,52.9,30.07,NW,321,1.0,1.0,92,0.00,,---,0.00,VWS V14.01,2013-06-07 13:32:00,
2013-06-07 08:37:00,55.3,53.0,30.07,NNW,346,1.0,2.0,92,0.00,,---,0.00,VWS V14.01,2013-06-07 13:37:00,
2013-06-07 08:42:00,55.3,53.0,30.07,NNW,346,0.0,0.0,92,0.00,,---,0.00,VWS V14.01,2013-06-07 13:42:00,
2013-06-07 08:47:00,55.5,52.9,30.07,NNW,346,0.0,1.0,91,0.00,,---,0.00,VWS V14.01,2013-06-07 13:47:00,
2013-06-07 08:52:00,55.5,52.9,30.07,NNW,339,0.0,2.0,91,0.00,,---,0.00,VWS V14.01,2013-06-07 13:52:00,
2013-06-07 08:57:00,55.6,53.0,30.07,NNW,339,0.0,0.0,91,0.00,,---,0.00,VWS V14.01,2013-06-07 13:57:00,
2013-06-07 09:02:00,55.8,53.2,30.08,WNW,303,0.0,0.0,91,0.00,,---,0.00,VWS V14.01,2013-06-07 14:02:00,
2013-06-07 09:07:00,55.9,53.3,30.08,WNW,303,0.0,0.0,91,0.00,,---,0.00,VWS V14.01,2013-06-07 14:07:00,
2013-06-07 09:12:00,56.2,53.6,30.08,WNW,303,0.0,0.0,91,0.00,,---,0.00,VWS V14.01,2013-06-07 14:12:00,
2013-06-07 09:17:00,56.4,53.5,30.08,WNW,303,0.0,1.0,90,0.00,,---,0.00,VWS V14.01,2013-06-07 14:17:00,
2013-06-07 09:22:00,56.5,53.6,30.07,WNW,303,0.0,1.0,90,0.00,,---,0.00,VWS V14.01,2013-06-07 14:22:00,
2013-06-07 09:27:00,56.8,53.9,30.07,WNW,303,0.0,0.0,90,0.00,,---,0.00,VWS V14.01,2013-06-07 14:27:00,
2013-06-07 09:32:00,57.0,53.8,30.06,WNW,303,0.0,0.0,89,0.00,,---,0.00,VWS V14.01,2013-06-07 14:32:00,
2013-06-07 09:37:00,57.2,54.0,30.06,WNW,303,0.0,0.0,89,0.00,,---,0.00,VWS V14.01,2013-06-07 14:37:00,
2013-06-07 09:42:00,57.6,54.1,30.06,WNW,303,0.0,0.0,88,0.00,,---,0.00,VWS V14.01,2013-06-07 14:42:00,
2013-06-07 09:47:00,57.9,54.4,30.06,WNW,303,0.0,0.0,88,0.00,,---,0.00,VWS V14.01,2013-06-07 14:47:00,
2013-06-07 09:52:00,58.2,54.4,30.07,WNW,303,0.0,0.0,87,0.00,,---,0.00,VWS V14.01,2013-06-07 14:52:00,
2013-06-07 09:57:00,58.4,54.2,30.07,WNW,303,0.0,0.0,86,0.00,,---,0.00,VWS V14.01,2013-06-07 14:57:00,
2013-06-07 10:02:00,58.7,54.5,30.07,WNW,303,0.0,0.0,86,0.00,,---,0.00,VWS V14.01,2013-06-07 15:02:00,
2013-06-07 10:07:00,58.7,54.2,30.07,WNW,300,0.0,1.0,85,0.00,,---,0.00,VWS V14.01,2013-06-07 15:07:00,
2013-06-07 10:12:00,58.9,54.1,30.06,NW,305,0.0,0.0,84,0.00,,---,0.00,VWS V14.01,2013-06-07 15:12:00,
2013-06-07 10:17:00,58.9,54.1,30.06,NW,305,0.0,0.0,84,0.00,,---,0.00,VWS V14.01,2013-06-07 15:17:00,
2013-06-07 10:22:00,58.9,53.8,30.06,North,360,0.0,2.0,83,0.00,,---,0.00,VWS V14.01,2013-06-07 15:22:00,
2013-06-07 10:27:00,59.0,54.2,30.06,North,359,0.0,0.0,84,0.00,,---,0.00,VWS V14.01,2013-06-07 15:27:00,
2013-06-07 10:32:00,59.6,54.8,30.05,NW,314,0.0,1.0,84,0.00,,---,0.00,VWS V14.01,2013-06-07 15:32:00,
2013-06-07 10:37:00,60.2,55.0,30.05,NW,315,0.0,1.0,83,0.00,,---,0.00,VWS V14.01,2013-06-07 15:37:00,
2013-06-07 10:42:00,60.9,55.0,30.05,NW,315,0.0,0.0,81,0.00,,---,0.00,VWS V14.01,2013-06-07 15:42:00,
2013-06-07 10:47:00,61.0,54.5,30.05,NW,316,0.0,2.0,79,0.00,,---,0.00,VWS V14.01,2013-06-07 15:47:00,
2013-06-07 10:52:00,61.1,54.5,30.05,NW,316,0.0,2.0,79,0.00,,---,0.00,VWS V14.01,2013-06-07 15:52:00,
2013-06-07 10:57:00,61.6,54.7,30.05,NW,315,0.0,0.0,78,0.00,,---,0.00,VWS V14.01,2013-06-07 15:57:00,
2013-06-07 11:02:00,61.0,53.4,30.05,NNW,346,0.0,2.0,76,0.00,,---,0.00,VWS V14.01,2013-06-07 16:02:00,
2013-06-07 11:07:00,61.1,53.8,30.04,NNW,343,0.0,2.0,77,0.00,,---,0.00,VWS V14.01,2013-06-07 16:07:00,
2013-06-07 11:12:00,61.3,53.7,30.04,NNW,342,0.0,0.0,76,0.00,,---,0.00,VWS V14.01,2013-06-07 16:12:00,
2013-06-07 11:17:00,61.9,55.0,30.04,NNW,332,0.0,2.0,78,0.00,,---,0.00,VWS V14.01,2013-06-07 16:17:00,
2013-06-07 11:22:00,62.7,54.3,30.04,SSE,147,2.0,5.0,74,0.00,,---,0.00,VWS V14.01,2013-06-07 16:22:00,
2013-06-07 11:27:00,63.3,55.2,30.04,SE,135,1.0,1.0,75,0.00,,---,0.00,VWS V14.01,2013-06-07 16:27:00,
2013-06-07 11:32:00,63.8,54.6,30.04,SSW,198,1.0,3.0,72,0.00,,---,0.00,VWS V14.01,2013-06-07 16:32:00,
2013-06-07 11:37:00,63.3,54.9,30.04,North,351,1.0,4.0,74,0.00,,---,0.00,VWS V14.01,2013-06-07 16:37:00,
2013-06-07 11:42:00,63.3,54.5,30.04,WNW,290,1.0,1.0,73,0.00,,---,0.00,VWS V14.01,2013-06-07 16:42:00,
2013-06-07 11:47:00,64.0,55.2,30.04,West,278,0.0,5.0,73,0.00,,---,0.00,VWS V14.01,2013-06-07 16:47:00,
2013-06-07 11:52:00,65.2,55.6,30.04,NNW,332,1.0,5.0,71,0.00,,---,0.00,VWS V14.01,2013-06-07 16:52:00,
2013-06-07 11:57:00,65.4,55.8,30.04,SW,228,4.0,4.0,71,0.00,,---,0.00,VWS V14.01,2013-06-07 16:57:00,
2013-06-07 12:02:00,65.6,54.8,30.04,SE,131,2.0,4.0,68,0.00,,---,0.00,VWS V14.01,2013-06-07 17:02:00,
2013-06-07 12:07:00,65.2,53.6,30.04,NE,53,1.0,4.0,66,0.00,,---,0.00,VWS V14.01,2013-06-07 17:07:00,
2013-06-07 12:12:00,64.3,52.7,30.04,North,356,0.0,0.0,66,0.00,,---,0.00,VWS V14.01,2013-06-07 17:12:00,
2013-06-07 12:17:00,64.1,52.9,30.03,SSE,159,1.0,4.0,67,0.00,,---,0.00,VWS V14.01,2013-06-07 17:17:00,
2013-06-07 12:22:00,64.4,53.2,30.03,SSW,204,0.0,4.0,67,0.00,,---,0.00,VWS V14.01,2013-06-07 17:22:00,
2013-06-07 12:27:00,64.9,53.3,30.03,SW,225,1.0,1.0,66,0.00,,---,0.00,VWS V14.01,2013-06-07 17:27:00,
2013-06-07 12:32:00,64.8,53.6,30.03,SE,139,1.0,3.0,67,0.00,,---,0.00,VWS V14.01,2013-06-07 17:32:00,
2013-06-07 12:37:00,64.7,53.1,30.03,SE,145,1.0,3.0,66,0.00,,---,0.00,VWS V14.01,2013-06-07 17:37:00,
2013-06-07 12:42:00,64.4,52.8,30.03,WSW,249,0.0,0.0,66,0.00,,---,0.00,VWS V14.01,2013-06-07 17:42:00,
2013-06-07 12:47:00,64.6,53.8,30.03,WSW,249,0.0,2.0,68,0.00,,---,0.00,VWS V14.01,2013-06-07 17:47:00,
2013-06-07 12:52:00,64.8,54.0,30.03,WSW,247,2.0,2.0,68,0.00,,---,0.00,VWS V14.01,2013-06-07 17:52:00,
2013-06-07 12:57:00,64.8,53.6,30.03,ESE,109,1.0,1.0,67,0.00,,---,0.00,VWS V14.01,2013-06-07 17:57:00,
2013-06-07 13:02:00,65.1,53.9,30.03,SW,229,2.0,2.0,67,0.00,,---,0.00,VWS V14.01,2013-06-07 18:02:00,
2013-06-07 13:07:00,65.2,54.4,30.02,SW,230,1.0,2.0,68,0.00,,---,0.00,VWS V14.01,2013-06-07 18:07:00,
2013-06-07 13:12:00,65.3,54.5,30.02,WNW,298,0.0,1.0,68,0.00,,---,0.00,VWS V14.01,2013-06-07 18:12:00,
2013-06-07 13:17:00,65.0,53.4,30.02,SW,232,2.0,2.0,66,0.00,,---,0.00,VWS V14.01,2013-06-07 18:17:00,
2013-06-07 13:22:00,64.8,53.2,30.02,SSW,198,0.0,3.0,66,0.00,,---,0.00,VWS V14.01,2013-06-07 18:22:00,
2013-06-07 13:27:00,64.9,53.3,30.02,SW,233,0.0,0.0,66,0.00,,---,0.00,VWS V14.01,2013-06-07 18:27:00,
2013-06-07 13:32:00,65.0,53.4,30.02,SW,233,0.0,0.0,66,0.00,,---,0.00,VWS V14.01,2013-06-07 18:32:00,
2013-06-07 13:37:00,65.2,52.7,30.02,SW,232,1.0,2.0,64,0.00,,---,0.00,VWS V14.01,2013-06-07 18:37:00,
2013-06-07 13:42:00,64.9,52.5,30.01,SW,232,1.0,1.0,64,0.00,,---,0.00,VWS V14.01,2013-06-07 18:42:00,
2013-06-07 13:47:00,64.7,52.7,30.01,SW,232,0.0,1.0,65,0.00,,---,0.00,VWS V14.01,2013-06-07 18:47:00,
2013-06-07 13:53:00,64.6,53.0,30.01,SW,232,0.0,1.0,66,0.00,,---,0.00,VWS V14.01,2013-06-07 18:53:00,
2013-06-07 13:58:00,64.7,52.7,30.01,SW,232,0.0,0.0,65,0.00,,---,0.00,VWS V14.01,2013-06-07 18:58:00,
2013-06-07 14:03:00,64.9,53.3,30.01,WSW,237,0.0,1.0,66,0.00,,---,0.00,VWS V14.01,2013-06-07 19:03:00,
2013-06-07 14:08:00,65.1,53.1,30.01,SW,235,0.0,1.0,65,0.00,,---,0.00,VWS V14.01,2013-06-07 19:08:00,
2013-06-07 14:13:00,65.3,53.2,30.01,WSW,248,0.0,2.0,65,0.00,,---,0.00,VWS V14.01,2013-06-07 19:13:00,
2013-06-07 14:18:00,65.6,54.8,30.01,WSW,249,0.0,2.0,68,0.00,,---,0.00,VWS V14.01,2013-06-07 19:18:00,
2013-06-07 14:23:00,65.8,54.5,30.01,WSW,249,0.0,2.0,67,0.00,,---,0.00,VWS V14.01,2013-06-07 19:23:00,
2013-06-07 14:28:00,66.1,54.4,30.01,WSW,251,0.0,0.0,66,0.00,,---,0.00,VWS V14.01,2013-06-07 19:28:00,
2013-06-07 14:33:00,66.4,54.7,30.01,WSW,251,0.0,1.0,66,0.00,,---,0.00,VWS V14.01,2013-06-07 19:33:00,
2013-06-07 14:38:00,66.6,54.9,30.00,WSW,251,1.0,1.0,66,0.00,,---,0.00,VWS V14.01,2013-06-07 19:38:00,
2013-06-07 14:44:00,66.4,53.0,30.00,SW,230,0.0,2.0,62,0.00,,---,0.00,VWS V14.01,2013-06-07 19:44:00,
2013-06-07 14:49:00,66.2,53.2,30.00,SW,230,0.0,2.0,63,0.00,,---,0.00,VWS V14.01,2013-06-07 19:49:00,
2013-06-07 14:54:00,66.2,53.2,30.00,SW,230,0.0,2.0,63,0.00,,---,0.00,VWS V14.01,2013-06-07 19:54:00,
2013-06-07 14:59:00,66.1,52.7,30.00,SSW,197,1.0,1.0,62,0.00,,---,0.00,VWS V14.01,2013-06-07 19:59:00,
2013-06-07 15:04:00,65.9,53.0,30.00,SSW,197,0.0,3.0,63,0.00,,---,0.00,VWS V14.01,2013-06-07 20:04:00,
2013-06-07 15:09:00,66.0,53.1,30.00,SSW,209,0.0,3.0,63,0.00,,---,0.00,VWS V14.01,2013-06-07 20:09:00,
2013-06-07 15:15:00,66.4,54.3,30.00,SSW,209,0.0,0.0,65,0.00,,---,0.00,VWS V14.01,2013-06-07 20:15:00,
2013-06-07 15:20:00,66.4,54.7,30.00,North,5,0.0,2.0,66,0.00,,---,0.00,VWS V14.01,2013-06-07 20:20:00,
2013-06-07 15:25:00,66.6,53.6,30.00,North,5,0.0,2.0,63,0.00,,---,0.00,VWS V14.01,2013-06-07 20:25:00,
2013-06-07 15:30:00,66.5,52.7,30.00,NNW,344,0.0,2.0,61,0.00,,---,0.00,VWS V14.01,2013-06-07 20:30:00,
2013-06-07 15:35:00,66.1,53.6,30.00,NNW,342,0.0,2.0,64,0.00,,---,0.00,VWS V14.01,2013-06-07 20:35:00,
2013-06-07 15:40:00,66.0,53.1,30.00,West,273,0.0,2.0,63,0.00,,---,0.00,VWS V14.01,2013-06-07 20:40:00,
2013-06-07 15:45:00,66.3,54.2,30.00,West,277,0.0,1.0,65,0.00,,---,0.00,VWS V14.01,2013-06-07 20:45:00,
2013-06-07 15:50:00,66.4,53.4,30.00,West,277,0.0,1.0,63,0.00,,---,0.00,VWS V14.01,2013-06-07 20:50:00,
2013-06-07 15:55:00,66.4,53.0,29.99,West,276,0.0,1.0,62,0.00,,---,0.00,VWS V14.01,2013-06-07 20:55:00,
2013-06-07 16:01:00,66.2,53.7,29.99,West,278,0.0,0.0,64,0.00,,---,0.00,VWS V14.01,2013-06-07 21:01:00,
2013-06-07 16:06:00,66.4,54.3,29.99,West,277,0.0,0.0,65,0.00,,---,0.00,VWS V14.01,2013-06-07 21:06:00,
2013-06-07 16:11:00,66.4,53.0,29.99,WNW,285,0.0,0.0,62,0.00,,---,0.00,VWS V14.01,2013-06-07 21:11:00,
2013-06-07 16:16:00,66.6,54.1,29.99,WNW,284,0.0,0.0,64,0.00,,---,0.00,VWS V14.01,2013-06-07 21:16:00,
2013-06-07 16:21:00,67.3,54.7,29.98,WNW,287,0.0,0.0,64,0.00,,---,0.00,VWS V14.01,2013-06-07 21:21:00,
2013-06-07 16:26:00,67.4,53.5,29.98,WNW,295,0.0,2.0,61,0.00,,---,0.00,VWS V14.01,2013-06-07 21:26:00,
2013-06-07 16:31:00,67.3,55.2,29.98,WNW,295,0.0,1.0,65,0.00,,---,0.00,VWS V14.01,2013-06-07 21:31:00,
2013-06-07 16:36:00,67.5,54.5,29.98,WNW,294,0.0,1.0,63,0.00,,---,0.00,VWS V14.01,2013-06-07 21:36:00,
2013-06-07 16:41:00,67.0,54.0,29.98,North,358,0.0,3.0,63,0.00,,---,0.00,VWS V14.01,2013-06-07 21:41:00,
2013-06-07 16:46:00,67.2,53.8,29.98,North,352,1.0,1.0,62,0.00,,---,0.00,VWS V14.01,2013-06-07 21:46:00,
2013-06-07 16:51:00,66.9,53.0,29.98,WNW,282,0.0,1.0,61,0.00,,---,0.00,VWS V14.01,2013-06-07 21:51:00,
2013-06-07 16:56:00,67.1,53.7,29.98,West,280,0.0,0.0,62,0.00,,---,0.00,VWS V14.01,2013-06-07 21:56:00,
2013-06-07 17:02:00,67.3,54.3,29.98,West,279,0.0,1.0,63,0.00,,---,0.00,VWS V14.01,2013-06-07 22:02:00,
2013-06-07 17:07:00,67.5,54.5,29.98,West,279,0.0,1.0,63,0.00,,---,0.00,VWS V14.01,2013-06-07 22:07:00,
2013-06-07 17:12:00,67.7,53.3,29.97,West,280,0.0,0.0,60,0.00,,---,0.00,VWS V14.01,2013-06-07 22:12:00,
2013-06-07 17:17:00,67.2,53.3,29.97,West,279,0.0,0.0,61,0.00,,---,0.00,VWS V14.01,2013-06-07 22:17:00,
2013-06-07 17:22:00,66.9,53.5,29.97,West,280,0.0,0.0,62,0.00,,---,0.00,VWS V14.01,2013-06-07 22:22:00,
2013-06-07 17:27:00,67.1,54.1,29.97,West,280,0.0,0.0,63,0.00,,---,0.00,VWS V14.01,2013-06-07 22:27:00,
2013-06-07 17:32:00,67.3,54.3,29.97,NNE,23,0.0,0.0,63,0.00,,---,0.00,VWS V14.01,2013-06-07 22:32:00,
2013-06-07 17:37:00,67.8,54.3,29.97,SE,143,2.0,3.0,62,0.00,,---,0.00,VWS V14.01,2013-06-07 22:37:00,
2013-06-07 17:42:00,68.3,55.2,29.97,West,277,1.0,1.0,63,0.00,,---,0.00,VWS V14.01,2013-06-07 22:42:00,
2013-06-07 17:47:00,68.8,54.4,29.96,West,275,0.0,2.0,60,0.00,,---,0.00,VWS V14.01,2013-06-07 22:47:00,
2013-06-07 17:52:00,69.5,54.6,29.96,West,277,0.0,2.0,59,0.00,,---,0.00,VWS V14.01,2013-06-07 22:52:00,
2013-06-07 17:57:00,69.7,53.3,29.96,West,276,0.0,0.0,56,0.00,,---,0.00,VWS V14.01,2013-06-07 22:57:00,
2013-06-07 18:02:00,69.1,53.7,29.96,West,277,0.0,0.0,58,0.00,,---,0.00,VWS V14.01,2013-06-07 23:02:00,
2013-06-07 18:07:00,68.5,53.6,29.95,West,277,0.0,1.0,59,0.00,,---,0.00,VWS V14.01,2013-06-07 23:07:00,
2013-06-07 18:13:00,67.9,53.5,29.95,SW,226,0.0,0.0,60,0.00,,---,0.00,VWS V14.01,2013-06-07 23:13:00,
2013-06-07 18:18:00,67.5,53.6,29.95,SW,225,0.0,1.0,61,0.00,,---,0.00,VWS V14.01,2013-06-07 23:18:00,
2013-06-07 18:23:00,67.2,53.8,29.95,SW,228,0.0,1.0,62,0.00,,---,0.00,VWS V14.01,2013-06-07 23:23:00,
2013-06-07 18:28:00,66.5,53.5,29.95,NNW,336,0.0,0.0,63,0.00,,---,0.00,VWS V14.01,2013-06-07 23:28:00,
2013-06-07 18:33:00,66.0,53.5,29.95,NNW,335,0.0,0.0,64,0.00,,---,0.00,VWS V14.01,2013-06-07 23:33:00,
2013-06-07 18:38:00,65.6,53.1,29.95,NNW,335,0.0,0.0,64,0.00,,---,0.00,VWS V14.01,2013-06-07 23:38:00,
2013-06-07 18:43:00,65.4,53.8,29.95,NNW,336,0.0,0.0,66,0.00,,---,0.00,VWS V14.01,2013-06-07 23:43:00,
2013-06-07 18:48:00,65.0,53.4,29.95,NNW,335,0.0,0.0,66,0.00,,---,0.00,VWS V14.01,2013-06-07 23:48:00,
2013-06-07 18:53:00,64.6,53.4,29.95,NNW,335,0.0,0.0,67,0.00,,---,0.00,VWS V14.01,2013-06-07 23:53:00,
2013-06-07 18:59:00,64.4,53.2,29.95,NNW,335,0.0,0.0,67,0.00,,---,0.00,VWS V14.01,2013-06-07 23:59:00,
2013-06-07 19:04:00,64.2,53.4,29.95,NNW,335,0.0,0.0,68,0.00,,---,0.00,VWS V14.01,2013-06-08 00:04:00,
2013-06-07 19:09:00,64.0,53.2,29.95,NNW,336,0.0,0.0,68,0.00,,---,0.00,VWS V14.01,2013-06-08 00:09:00,
2013-06-07 19:14:00,63.9,53.5,29.95,NNW,335,0.0,0.0,69,0.00,,---,0.00,VWS V14.01,2013-06-08 00:14:00,
2013-06-07 19:19:00,63.9,53.1,29.95,NNW,335,0.0,0.0,68,0.00,,---,0.00,VWS V14.01,2013-06-08 00:19:00,
2013-06-07 19:24:00,63.6,52.5,29.95,NNW,336,0.0,0.0,67,0.00,,---,0.00,VWS V14.01,2013-06-08 00:24:00,
2013-06-07 19:29:00,63.4,52.7,29.95,NNW,336,0.0,0.0,68,0.00,,---,0.00,VWS V14.01,2013-06-08 00:29:00,
2013-06-07 19:34:00,63.2,52.9,29.95,NNW,336,0.0,0.0,69,0.00,,---,0.00,VWS V14.01,2013-06-08 00:34:00,
2013-06-07 19:39:00,62.9,53.0,29.95,NNW,336,0.0,0.0,70,0.00,,---,0.00,VWS V14.01,2013-06-08 00:39:00,
2013-06-07 19:44:00,62.5,53.0,29.95,NNW,335,0.0,0.0,71,0.00,,---,0.00,VWS V14.01,2013-06-08 00:44:00,
2013-06-07 19:49:00,62.1,53.0,29.95,NNW,336,0.0,0.0,72,0.00,,---,0.00,VWS V14.01,2013-06-08 00:49:00,
2013-06-07 19:54:00,61.8,53.1,29.95,NNW,335,0.0,0.0,73,0.00,,---,0.00,VWS V14.01,2013-06-08 00:54:00,
2013-06-07 19:59:00,61.5,52.8,29.95,NNW,336,0.0,0.0,73,0.00,,---,0.00,VWS V14.01,2013-06-08 00:59:00,
2013-06-07 20:04:00,61.1,52.8,29.95,NNW,339,0.0,0.0,74,0.00,,---,0.00,VWS V14.01,2013-06-08 01:04:00,
2013-06-07 20:09:00,60.9,52.6,29.95,NNW,344,0.0,0.0,74,0.00,,---,0.00,VWS V14.01,2013-06-08 01:09:00,
2013-06-07 20:15:00,60.6,52.6,29.95,NNW,345,0.0,0.0,75,0.00,,---,0.00,VWS V14.01,2013-06-08 01:15:00,
2013-06-07 20:20:00,60.5,52.5,29.95,NNW,346,0.0,0.0,75,0.00,,---,0.00,VWS V14.01,2013-06-08 01:20:00,
2013-06-07 20:25:00,60.3,52.7,29.95,NNW,344,0.0,0.0,76,0.00,,---,0.00,VWS V14.01,2013-06-08 01:25:00,
2013-06-07 20:30:00,60.0,52.4,29.94,NNW,345,0.0,0.0,76,0.00,,---,0.00,VWS V14.01,2013-06-08 01:30:00,
2013-06-07 20:35:00,59.7,52.5,29.94,NNW,344,0.0,0.0,77,0.00,,---,0.00,VWS V14.01,2013-06-08 01:35:00,
2013-06-07 20:40:00,59.3,52.1,29.94,NNW,344,0.0,0.0,77,0.00,,---,0.00,VWS V14.01,2013-06-08 01:40:00,
2013-06-07 20:46:00,59.1,52.6,29.95,NNW,344,0.0,0.0,79,0.00,,---,0.00,VWS V14.01,2013-06-08 01:46:00,
2013-06-07 20:51:00,58.9,52.8,29.95,NNW,344,0.0,0.0,80,0.00,,---,0.00,VWS V14.01,2013-06-08 01:51:00,
2013-06-07 20:56:00,58.7,52.6,29.95,NNW,345,0.0,0.0,80,0.00,,---,0.00,VWS V14.01,2013-06-08 01:56:00,
2013-06-07 21:01:00,58.5,52.7,29.95,NNW,346,0.0,0.0,81,0.00,,---,0.00,VWS V14.01,2013-06-08 02:01:00,
2013-06-07 21:06:00,58.5,52.7,29.95,NNW,345,0.0,0.0,81,0.00,,---,0.00,VWS V14.01,2013-06-08 02:06:00,
2013-06-07 21:11:00,58.5,52.7,29.95,NNW,344,0.0,0.0,81,0.00,,---,0.00,VWS V14.01,2013-06-08 02:11:00,
2013-06-07 21:17:00,58.5,52.4,29.95,NNW,345,0.0,0.0,80,0.00,,---,0.00,VWS V14.01,2013-06-08 02:17:00,
2013-06-07 21:22:00,58.4,52.3,29.95,NNW,345,0.0,0.0,80,0.00,,---,0.00,VWS V14.01,2013-06-08 02:22:00,
2013-06-07 21:27:00,58.4,52.3,29.95,NNW,345,0.0,0.0,80,0.00,,---,0.00,VWS V14.01,2013-06-08 02:27:00,
2013-06-07 21:32:00,58.4,52.9,29.95,NNW,345,0.0,0.0,82,0.00,,---,0.00,VWS V14.01,2013-06-08 02:32:00,
2013-06-07 21:37:00,58.4,52.9,29.95,NNW,344,0.0,0.0,82,0.00,,---,0.00,VWS V14.01,2013-06-08 02:37:00,
2013-06-07 21:42:00,58.3,52.8,29.95,NNW,344,0.0,0.0,82,0.00,,---,0.00,VWS V14.01,2013-06-08 02:42:00,
2013-06-07 21:47:00,58.2,52.7,29.95,NNW,344,0.0,0.0,82,0.00,,---,0.00,VWS V14.01,2013-06-08 02:47:00,
2013-06-07 21:52:00,58.2,53.1,29.95,NNW,344,0.0,0.0,83,0.00,,---,0.00,VWS V14.01,2013-06-08 02:52:00,
2013-06-07 21:57:00,58.2,53.4,29.95,NNW,346,0.0,0.0,84,0.00,,---,0.00,VWS V14.01,2013-06-08 02:57:00,
2013-06-07 22:02:00,58.2,53.4,29.95,NNW,344,0.0,0.0,84,0.00,,---,0.00,VWS V14.01,2013-06-08 03:02:00,
2013-06-07 22:07:00,58.1,53.0,29.95,NNW,344,0.0,0.0,83,0.00,,---,0.00,VWS V14.01,2013-06-08 03:07:00,
2013-06-07 22:13:00,58.0,52.9,29.95,NNW,344,0.0,0.0,83,0.00,,---,0.00,VWS V14.01,2013-06-08 03:13:00,
2013-06-07 22:18:00,57.9,52.8,29.95,NNW,344,0.0,0.0,83,0.00,,---,0.00,VWS V14.01,2013-06-08 03:18:00,
2013-06-07 22:23:00,57.8,52.7,29.95,NNW,345,0.0,0.0,83,0.00,,---,0.00,VWS V14.01,2013-06-08 03:23:00,
2013-06-07 22:28:00,57.7,52.9,29.95,NNW,346,0.0,0.0,84,0.00,,---,0.00,VWS V14.01,2013-06-08 03:28:00,
2013-06-07 22:33:00,57.6,52.8,29.95,NNW,346,0.0,0.0,84,0.00,,---,0.00,VWS V14.01,2013-06-08 03:33:00,
2013-06-07 22:38:00,57.5,53.0,29.95,NNW,346,0.0,0.0,85,0.00,,---,0.00,VWS V14.01,2013-06-08 03:38:00,
2013-06-07 22:44:00,57.4,52.9,29.95,NNW,344,0.0,0.0,85,0.00,,---,0.00,VWS V14.01,2013-06-08 03:44:00,
2013-06-07 22:49:00,57.3,53.2,29.95,NNW,346,0.0,0.0,86,0.00,,---,0.00,VWS V14.01,2013-06-08 03:49:00,
2013-06-07 22:54:00,57.1,53.3,29.95,NNW,344,0.0,0.0,87,0.00,,---,0.00,VWS V14.01,2013-06-08 03:54:00,
2013-06-07 22:59:00,57.0,53.2,29.94,NNW,344,0.0,0.0,87,0.00,,---,0.00,VWS V14.01,2013-06-08 03:59:00,
2013-06-07 23:01:00,57.0,53.2,29.94,NNW,344,0.0,0.0,87,0.00,,---,0.00,VWS V14.01,2013-06-08 04:01:00,
2013-06-07 23:06:00,56.9,53.4,29.94,NNW,344,0.0,0.0,88,0.00,,---,0.00,VWS V14.01,2013-06-08 04:06:00,
2013-06-07 23:11:00,56.8,53.3,29.94,NNW,344,0.0,0.0,88,0.00,,---,0.00,VWS V14.01,2013-06-08 04:11:00,
2013-06-07 23:16:00,56.8,53.3,29.94,NNW,344,0.0,0.0,88,0.00,,---,0.00,VWS V14.01,2013-06-08 04:16:00,
2013-06-07 23:21:00,56.8,53.3,29.93,NNW,344,0.0,0.0,88,0.00,,---,0.00,VWS V14.01,2013-06-08 04:21:00,
2013-06-07 23:26:00,56.7,53.2,29.93,NNW,344,0.0,0.0,88,0.00,,---,0.00,VWS V14.01,2013-06-08 04:26:00,
2013-06-07 23:31:00,56.6,53.4,29.93,NNW,344,0.0,0.0,89,0.00,,---,0.00,VWS V14.01,2013-06-08 04:31:00,
2013-06-07 23:36:00,56.5,53.3,29.93,NNW,344,0.0,0.0,89,0.00,,---,0.00,VWS V14.01,2013-06-08 04:36:00,
2013-06-07 23:41:00,56.5,53.3,29.93,NNW,344,0.0,0.0,89,0.00,,---,0.00,VWS V14.01,2013-06-08 04:41:00,
2013-06-07 23:46:00,56.4,53.2,29.93,NNW,345,0.0,0.0,89,0.00,,---,0.00,VWS V14.01,2013-06-08 04:46:00,
2013-06-07 23:51:00,56.4,53.2,29.93,NNW,344,0.0,0.0,89,0.00,,---,0.00,VWS V14.01,2013-06-08 04:51:00,
2013-06-07 23:56:00,56.3,53.1,29.93,NNW,344,0.0,0.0,89,0.00,,---,0.00,VWS V14.01,2013-06-08 04:56:00,